This demonstration page uses our WeatherBlox Daily Observations layout. Learn more.

Left ArrowRight Arrow

40.92945, -100.16068

Hourly Observations for June 18, 2020

Temp ( °F °C ) Dew Point ( °F °C ) Humidity (%) Winds ( mph kmh ) Pressure ( in mb ) Visibility ( mi km ) Precip ( " mm )
12:15 am 00:15 Clear 78 25.8 56 13.6 47 47 SSE 18 30 29.64 1004 10 16.0934 0 0
12:35 am 00:35 Clear 78 25.5 56 13.5 47 47 SSE 16 26 29.65 1004 10 16.0934 0 0
12:55 am 00:55 Clear 78 25.4 56 13.5 48 48 SSE 16 26 29.66 1004 10 16.0934 0 0
1:15 am 01:15 Clear 77 25.2 56 13.2 47 47 SSE 18 30 29.66 1004 10 16.0934 0 0
1:35 am 01:35 Clear 77 24.8 56 13.1 48 48 SSE 20 31 29.66 1004 10 16.0934 0 0
1:55 am 01:55 Clear 76 24.6 55 13 49 49 SSE 20 31 29.66 1005 10 16.0934 0 0
2:15 am 02:15 Clear 76 24.2 55 13 50 50 SSE 17 28 29.66 1004 10 16.0934 0 0
2:35 am 02:35 Clear 75 24 55 13 50 50 SSE 20 31 29.66 1004 10 16.0934 0 0
2:55 am 02:55 Clear 75 23.8 55 13 51 51 SSE 17 28 29.66 1004 10 16.0934 0 0
3:15 am 03:15 Clear 74 23.5 56 13.1 52 52 SSE 17 28 29.67 1005 10 16.0934 0 0
3:35 am 03:35 Clear 74 23.1 56 13.2 54 54 SSE 13 20 29.69 1005 10 16.0934 0 0
3:55 am 03:55 Mostly Cloudy 72 22.2 56 13.5 58 58 WNW 7 11 29.72 1007 10 16.0934 0 0
4:15 am 04:15 Cloudy 74 23.2 55 12.9 52 52 S 13 20 29.7 1006 10 16.0934 0 0
4:35 am 04:35 Cloudy 73 22.5 56 13.4 57 57 S 9 15 29.7 1006 10 16.0934 0 0
4:55 am 04:55 Mostly Cloudy 71 21.7 56 13.6 60 60 S 3 6 29.71 1006 10 16.0934 0 0
5:15 am 05:15 Mostly Cloudy 69 20.3 58 14.5 69 69 NNW 3 6 29.74 1007 10 16.0934 0 0
5:35 am 05:35 Mostly Cloudy 65 18.2 58 14.4 79 79 SE 5 7 29.75 1007 10 16.0934 0 0
5:55 am 05:55 Partly Cloudy 65 18.5 57 13.8 74 74 SE 5 7 29.76 1008 10 16.0934 0 0
6:15 am 06:15 Sunny 66 19 57 13.7 72 72 SE 5 7 29.75 1007 10 16.0934 0 0
6:35 am 06:35 Sunny 64 17.9 57 14.1 79 79 N 9 15 29.79 1009 10 16.0934 0 0
6:55 am 06:55 Mostly Cloudy 66 18.9 58 14.2 74 74 NNE 5 7 29.78 1009 10 16.0934 0 0
7:15 am 07:15 Cloudy 67 19.6 59 15 75 75 N 5 7 29.79 1009 10 16.0934 0 0
7:35 am 07:35 Cloudy 69 20.3 62 16.4 78 78 N 8 13 29.79 1009 10 16.0934 0 0
7:55 am 07:55 Cloudy 69 20.7 64 17.5 82 82 N 13 20 29.8 1009 10 16.0934 0 0
8:15 am 08:15 Cloudy 67 19.3 62 16.4 83 83 N 17 28 29.82 1010 10 16.0934 0 0
8:35 am 08:35 Cloudy 65 18.3 60 15.4 83 83 N 17 28 29.85 1011 10 16.0934 0 0
8:55 am 08:55 Cloudy 65 18.3 59 15.1 82 82 N 21 33 29.85 1011 10 16.0934 0 0
9:15 am 09:15 Cloudy 65 18.5 59 15 80 80 N 23 37 29.86 1011 10 16.0934 0 0
9:35 am 09:35 Cloudy 66 19 59 14.8 77 77 N 21 33 29.86 1011 10 16.0934 0 0
9:55 am 09:55 Cloudy 66 19 58 14.7 76 76 N 21 33 29.87 1012 10 16.0934 0 0
10:15 am 10:15 Cloudy 65 18.5 58 14.5 78 78 N 23 37 29.89 1012 10 16.0934 0 0
10:35 am 10:35 Cloudy 65 18.3 57 14.1 77 77 N 24 39 29.9 1012 10 16.0934 0 0
10:55 am 10:55 Cloudy 65 18.6 58 14.5 77 77 NNE 23 37 29.89 1012 10 16.0934 0 0
11:15 am 11:15 Cloudy 68 19.8 59 15.1 74 74 NNE 23 37 29.88 1012 10 16.0934 0 0
11:35 am 11:35 Cloudy 68 20.1 59 15.1 73 73 NNE 21 33 29.89 1012 10 16.0934 0 0
11:55 am 11:55 Cloudy 68 20 59 15.1 74 74 NNE 17 28 29.89 1012 10 16.0934 0 0
12:15 pm 12:15 Cloudy 68 20.1 60 15.4 74 74 NNE 16 26 29.9 1013 10 16.0934 0 0
12:35 pm 12:35 Cloudy 69 20.6 60 15.7 74 74 N 20 31 29.91 1013 10 16.0934 0 0
12:55 pm 12:55 Cloudy 69 20.5 60 15.3 72 72 NNE 17 28 29.91 1013 10 16.0934 0 0
1:15 pm 13:15 Cloudy 69 20.5 59 14.8 70 70 NNE 16 26 29.92 1013 10 16.0934 0 0
1:35 pm 13:35 Cloudy 70 21.1 58 14.6 67 67 NNE 14 22 29.9 1013 10 16.0934 0 0
1:55 pm 13:55 Cloudy 71 21.8 58 14.2 62 62 NNE 15 24 29.9 1012 10 16.0934 0 0
2:15 pm 14:15 Cloudy 72 22 56 13.6 59 59 N 17 28 29.9 1012 10 16.0934 0 0
2:35 pm 14:35 Cloudy 72 22 57 13.9 60 60 N 13 20 29.9 1012 10 16.0934 0 0
2:55 pm 14:55 Cloudy 70 20.9 56 13.6 63 63 N 15 24 29.91 1013 10 16.0934 0 0
3:15 pm 15:15 Cloudy 68 20.1 56 13.3 65 65 N 13 20 29.92 1013 10 16.0934 0 0
3:35 pm 15:35 Cloudy 69 20.6 56 13.3 63 63 N 17 28 29.91 1013 10 16.0934 0 0
3:55 pm 15:55 Cloudy 70 21 55 12.9 60 60 NNE 14 22 29.9 1013 10 16.0934 0 0
4:15 pm 16:15 Cloudy 70 21 55 12.9 60 60 N 10 17 29.9 1013 10 16.0934 0 0
4:35 pm 16:35 Cloudy 70 21.3 54 12.3 57 57 N 12 19 29.9 1013 10 16.0934 0 0
4:55 pm 16:55 Cloudy 72 22.2 54 12.2 53 53 N 13 20 29.89 1012 10 16.0934 0 0
5:15 pm 17:15 Cloudy 74 23.2 54 12.1 50 50 NNE 13 20 29.88 1012 10 16.0934 0 0
5:35 pm 17:35 Partly Cloudy 76 24.5 53 11.9 45 45 N 14 22 29.87 1012 10 16.0934 0 0
5:55 pm 17:55 Sunny 76 24.4 54 12.1 46 46 N 13 20 29.86 1011 10 16.0934 0 0
6:15 pm 18:15 Sunny 75 24.1 51 10.6 43 43 N 15 24 29.87 1011 10 16.0934 0 0
6:35 pm 18:35 Sunny 75 24 53 11.4 45 45 N 15 24 29.87 1011 10 16.0934 0 0
6:55 pm 18:55 Sunny 74 23.6 50 10 42 42 N 15 24 29.87 1012 10 16.0934 0 0
7:15 pm 19:15 Sunny 74 23.2 51 10.5 45 45 N 15 24 29.87 1012 10 16.0934 0 0
7:35 pm 19:35 Sunny 72 22.4 53 11.4 50 50 N 13 20 29.89 1012 10 16.0934 0 0
7:55 pm 19:55 Sunny 70 21.1 52 11.1 53 53 N 12 19 29.9 1013 10 16.0934 0 0
8:15 pm 20:15 Sunny 69 20.7 52 11.3 55 55 N 8 13 29.91 1013 10 16.0934 0 0
8:35 pm 20:35 Sunny 68 20 53 11.6 59 59 NNE 7 11 29.91 1013 10 16.0934 0 0
8:55 pm 20:55 Sunny 66 19 53 11.9 64 64 NNE 8 13 29.92 1013 10 16.0934 0 0
9:15 pm 21:15 Clear 65 18.2 54 12 67 67 NNE 7 11 29.95 1014 10 16.0934 0 0
9:35 pm 21:35 Clear 63 17.3 53 11.8 70 70 NNE 7 11 29.96 1014 10 16.0934 0 0
9:55 pm 21:55 Clear 61 16 53 11.7 76 76 NE 7 11 30 1016 10 16.0934 0 0
10:15 pm 22:15 Clear 60 15.7 53 11.8 78 78 NNE 7 11 30.01 1016 10 16.0934 0 0
10:35 pm 22:35 Clear 61 16.1 54 12 77 77 NE 7 11 30.02 1016 10 16.0934 0 0
10:55 pm 22:55 Partly Cloudy 60 15.5 54 12 80 80 NE 6 9 30.03 1017 10 16.0934 0 0
11:15 pm 23:15 Mostly Cloudy 61 16 54 12.3 79 79 NE 7 11 30.02 1016 10 16.0934 0 0
11:35 pm 23:35 Partly Cloudy 61 15.9 55 12.5 80 80 NE 6 9 30.02 1017 10 16.0934 0 0
11:55 pm 23:55 Clear with Nearby Thunderstorms 59 15 54 12.2 83 83 NNE 5 7 30.03 1017 10 16.0934 0 0

Powered by AerisWeather